Location: *
(11.7485°N, 79.7483°E)
Time: 10:47:42
(UTC+00:00)

VEP-3 - Pass Details

Date: 22 January 2021
Orbit: 1045 x 33699 km, 24.4° (Epoch: 24 February)

Event Time Altitude Azimuth Distance (km) Brightness Sun altitude
Exits shadow 00:58:34 - 290° (WNW) 19,671 8.4 -2.5°
Reaches altitude 10° 01:25:24 10° 292° (WNW) 12,957 7.6 3.6°
Maximum altitude 01:57:50 90° 216° (SW) 1,934 4.3 11.0°
Drops below altitude 10° 02:04:17 10° 113° (ESE) 3,095 9.1 12.4°
Sets 02:06:07 0° 113° (ESE) 3,871 7.8 12.9°
